Date,TemperatureHighF,TemperatureAvgF,TemperatureLowF,DewpointHighF,DewpointAvgF,DewpointLowF,HumidityHigh,HumidityAvg,HumidityLow,PressureMaxIn,PressureMinIn,WindSpeedMaxMPH,WindSpeedAvgMPH,GustSpeedMaxMPH,PrecipitationSumIn
2013-1-1,79.2,62.2,51.4,64.5,57.4,49.3,95,85,54,30.22,30.04,8,1,12,0.00
2013-1-2,81.3,67.5,55.5,67.8,61.8,53.6,94,83,55,30.08,29.97,7,1,11,0.01
2013-1-3,78.9,64.7,57.0,68.7,61.4,55.1,95,90,70,30.16,30.02,3,0,6,0.01
2013-1-4,63.6,62.0,60.6,61.2,59.7,58.3,93,92,91,30.20,30.12,3,2,6,0.00
2013-1-5,76.5,70.2,64.8,67.6,65.5,62.8,94,86,73,30.24,30.18,2,0,4,0.43
2013-1-6,79.1,69.7,63.0,71.6,66.3,61.1,96,89,75,30.21,30.06,3,0,7,0.25
2013-1-7,76.3,67.8,61.1,67.0,63.0,58.5,94,85,68,30.20,30.10,5,2,9,0.00
2013-1-8,78.7,71.7,63.8,72.1,67.5,62.0,95,87,74,30.23,30.11,3,1,6,0.04
2013-1-9,73.6,70.4,66.2,70.5,67.9,64.4,94,92,90,30.30,30.19,4,1,7,0.01
2013-1-10,73.0,71.1,65.7,69.9,67.9,63.3,92,90,84,30.30,30.27,3,1,7,0.00
2013-1-11,80.0,70.5,62.6,70.7,66.0,60.3,95,86,70,30.28,30.17,7,2,12,0.00
2013-1-12,80.8,69.0,58.7,70.4,64.1,56.9,96,85,66,30.20,30.11,5,1,9,0.01
2013-1-13,80.5,70.6,59.6,68.3,64.6,57.7,95,82,60,30.16,30.07,6,2,14,0.01
2013-1-14,79.8,69.4,57.7,68.3,64.0,55.8,95,84,66,30.19,30.13,6,2,11,0.00
2013-1-15,79.1,70.9,65.1,70.5,66.1,62.8,94,85,71,30.15,30.06,7,2,10,0.04
2013-1-16,82.3,69.6,58.4,69.4,63.8,56.4,95,83,53,30.11,30.01,8,2,11,0.01
2013-1-17,83.5,68.9,55.2,70.5,62.3,48.8,93,80,52,30.08,29.90,11,5,21,0.00
2013-1-18,73.5,59.2,45.4,61.4,51.2,38.1,90,75,56,30.25,30.08,6,4,10,0.03
2013-1-19,74.9,69.2,65.0,67.3,63.3,59.2,92,82,72,30.26,30.12,6,3,10,0.06
2013-1-20,76.3,65.6,58.5,68.1,62.1,56.8,95,89,73,30.16,30.06,4,1,6,0.01
2013-1-21,79.8,67.1,60.9,68.7,62.8,58.9,95,87,65,30.08,29.99,4,0,6,0.02
2013-1-22,72.6,62.7,53.0,59.9,52.6,47.0,87,70,47,30.27,30.03,6,2,10,0.00
2013-1-23,73.8,59.1,49.4,54.4,48.1,39.7,88,68,46,30.34,30.25,4,1,6,0.00
2013-1-24,77.2,58.7,44.8,56.6,48.9,42.6,92,73,40,30.32,30.22,3,0,6,0.00
2013-1-25,80.0,61.9,49.7,60.0,53.7,47.8,94,78,42,30.31,30.17,4,0,9,0.01
2013-1-26,79.1,62.4,47.8,61.1,54.0,45.6,95,76,45,30.28,30.16,3,0,7,0.00
2013-1-27,81.8,66.4,51.9,66.6,59.0,49.9,98,79,49,30.31,30.22,5,1,9,0.02
2013-1-28,74.7,70.6,67.1,67.7,65.4,63.8,92,84,73,30.34,30.25,5,2,14,0.01
2013-1-29,79.4,70.1,59.7,70.4,65.4,58.0,96,86,70,30.26,30.12,8,2,15,0.00
2013-1-30,83.9,73.3,63.4,68.3,64.4,61.3,94,75,52,30.12,29.91,11,4,18,0.00
2013-1-31,72.8,62.7,51.2,66.4,49.9,36.9,93,67,30,30.21,29.90,7,3,12,0.10
2013-2-1,72.3,57.0,47.2,49.2,40.8,33.4,90,57,28,30.33,30.20,4,1,7,0.00
2013-2-2,77.6,60.4,48.0,54.9,48.5,42.7,90,69,37,30.29,30.14,3,1,6,0.00
2013-2-3,77.3,60.6,49.2,52.7,47.4,38.3,91,65,36,30.19,30.05,6,1,11,0.00
2013-2-4,75.5,57.5,45.1,55.8,46.6,39.9,92,70,34,30.13,30.02,4,0,7,0.00
2013-2-5,78.5,60.6,45.4,58.9,50.3,41.9,93,72,38,30.10,29.99,5,1,8,0.00
2013-2-6,78.4,66.7,53.4,67.3,60.7,51.3,94,82,64,30.11,30.02,4,1,8,0.00
2013-2-7,78.6,70.8,59.7,68.2,63.9,57.4,94,80,64,30.08,29.89,7,3,14,0.00
2013-2-8,85.2,69.4,59.3,65.5,61.4,56.0,93,78,39,30.07,29.86,7,2,12,0.00
2013-2-9,79.5,66.1,52.4,62.5,58.0,50.4,94,77,51,30.20,30.06,5,1,7,0.01
2013-2-10,76.5,70.2,66.0,62.0,59.3,56.4,77,69,57,30.28,30.18,7,4,13,0.00
2013-2-11,79.2,72.2,66.7,66.6,64.1,61.9,90,76,60,30.22,30.09,7,3,12,0.00
2013-2-12,86.0,73.1,60.4,69.6,65.6,58.3,94,79,47,30.11,29.94,8,3,13,0.00
2013-2-13,88.0,74.1,64.6,70.9,66.2,60.9,93,78,45,29.98,29.82,12,6,18,0.02
2013-2-14,73.7,63.0,57.3,67.3,60.1,55.0,94,90,75,30.04,29.92,4,0,10,0.62
2013-2-15,71.5,61.2,54.2,61.3,57.1,52.4,95,87,68,30.07,29.95,3,0,5,0.03
2013-2-16,71.2,60.2,48.0,56.7,47.2,27.5,93,66,33,30.09,29.88,11,3,16,0.00
2013-2-17,60.0,48.4,39.6,40.1,27.1,19.6,80,46,24,30.34,30.08,6,2,12,0.00
2013-2-18,68.3,56.9,40.0,52.9,43.7,28.6,85,63,44,30.35,30.22,6,2,9,0.00
2013-2-19,80.0,64.9,50.8,60.8,53.7,47.9,93,70,43,30.22,30.06,10,2,18,0.00
2013-2-20,78.4,65.8,55.7,63.6,59.0,53.6,94,80,58,30.13,30.03,4,1,6,0.00
2013-2-21,80.9,70.6,60.2,69.1,64.2,58.2,95,81,62,30.11,30.01,6,2,10,0.00
2013-2-22,80.3,71.7,59.4,72.1,67.4,57.6,96,87,76,30.10,30.01,7,3,13,0.00
2013-2-23,88.9,75.9,64.5,71.4,66.7,62.7,95,76,43,30.03,29.87,9,4,16,0.00
2013-2-24,84.4,69.9,64.2,72.4,65.9,62.4,94,88,60,29.98,29.88,8,4,13,0.52
2013-2-25,85.6,73.4,63.9,73.2,66.9,62.1,96,82,48,29.93,29.79,8,2,14,15.53
2013-2-26,83.3,75.2,65.6,72.7,69.3,62.4,91,83,63,29.86,29.75,10,6,20,10.10
2013-2-27,79.4,67.1,58.3,63.1,59.6,51.9,94,79,48,29.97,29.85,7,2,11,25.25
2013-2-28,77.8,64.2,51.6,53.1,49.6,43.5,92,63,33,30.00,29.86,7,3,11,0.00
2013-3-1,67.4,57.8,52.0,49.8,44.5,36.9,90,63,36,29.99,29.90,6,2,11,0.00
2013-3-2,61.9,53.0,43.4,43.0,37.0,29.9,80,56,31,30.03,29.93,11,4,18,0.00
2013-3-3,58.2,44.6,36.9,42.2,34.6,31.0,87,69,43,30.05,29.98,8,2,12,0.00
2013-3-18,79.9,71.9,63.1,67.1,63.6,59.1,91,76,59,30.07,29.92,8,3,0,0.03
2013-3-19,81.4,70.7,60.4,67.3,63.8,58.4,95,80,57,30.01,29.89,5,1,0,0.00
2013-3-20,79.2,70.3,61.8,69.1,63.7,58.1,95,81,62,29.98,29.78,8,2,0,0.00
2013-3-21,75.9,61.9,51.3,57.9,47.5,35.2,93,65,25,29.95,29.82,5,1,0,0.01
2013-3-22,76.1,62.8,47.8,63.2,53.9,45.6,94,75,44,30.03,29.91,6,2,0,0.04
2013-3-23,88.9,75.6,64.6,73.0,67.4,62.5,94,77,51,29.99,29.75,10,3,0,0.00
2013-3-24,88.0,72.9,64.7,72.5,67.5,62.3,94,84,54,29.88,29.63,18,6,10,0.25
2013-3-25,78.4,68.0,55.5,65.2,48.9,28.2,94,59,17,30.00,29.71,7,4,10,0.01
2013-3-26,65.8,58.1,49.7,41.7,30.7,19.6,66,38,18,30.14,30.00,12,4,16,0.00
2013-3-27,69.5,54.0,41.7,47.6,38.5,32.6,85,58,30,30.29,30.19,5,1,6,0.00
2013-3-28,74.0,57.5,43.3,49.7,43.8,35.5,90,65,29,30.30,30.20,4,1,8,0.00
2013-3-29,78.9,62.1,46.2,53.6,48.0,41.9,92,65,30,30.33,30.23,3,1,8,0.00
2013-3-30,75.7,63.5,49.8,55.9,52.6,47.1,92,70,42,30.27,30.15,7,3,12,0.00
2013-3-31,81.5,69.2,58.3,66.0,59.3,52.2,89,72,45,30.19,30.02,8,3,15,0.00
2013-4-1,86.7,72.8,60.9,68.6,64.1,58.6,93,76,45,30.05,29.92,10,3,16,0.08
2013-4-2,87.3,72.3,59.4,65.7,63.0,57.6,94,75,45,30.09,30.00,5,2,9,0.01
2013-4-3,81.4,74.1,68.4,70.3,67.8,64.5,90,81,64,30.09,29.99,7,3,13,0.01
2013-4-4,75.2,70.7,66.4,71.0,67.4,63.4,93,89,82,30.06,29.88,11,4,16,0.15
2013-4-5,78.7,67.6,61.9,71.7,63.6,58.5,94,88,70,29.97,29.80,8,3,10,0.13
2013-4-6,81.9,69.3,54.9,65.8,59.9,52.6,92,74,51,30.13,29.97,6,2,11,0.00
2013-4-7,81.5,73.6,68.1,63.4,61.4,59.6,83,67,50,30.17,30.06,4,2,9,0.00
2013-4-8,82.9,71.9,58.1,67.9,63.2,56.2,95,76,52,30.16,30.07,5,1,13,0.00
2013-4-9,81.6,74.6,69.9,68.7,65.8,61.7,89,75,56,30.20,30.08,7,2,12,0.00
2013-4-10,81.8,74.8,64.9,71.9,68.5,62.6,94,81,67,30.14,30.02,8,3,13,0.00
2013-4-11,82.5,77.2,73.1,72.5,71.4,70.0,90,83,70,30.02,29.87,10,6,16,0.00
2013-4-12,89.6,80.5,74.4,74.7,71.5,68.2,90,75,52,29.93,29.82,11,5,20,0.00
2013-4-13,89.1,77.0,72.0,74.6,69.4,66.1,89,78,58,30.00,29.88,5,1,8,0.00
2013-4-14,85.4,75.8,65.7,76.4,71.6,62.9,94,87,72,29.99,29.84,9,3,15,2.78
2013-4-15,89.6,75.2,63.2,71.6,66.0,61.1,94,75,48,30.08,29.93,3,1,6,21.50
2013-4-16,87.9,78.1,69.4,74.0,70.4,66.7,92,78,58,30.16,30.05,4,2,7,29.98
2013-4-17,87.3,77.7,68.8,70.7,68.3,65.4,90,74,54,30.15,30.06,4,1,8,29.89
2013-4-18,85.3,77.9,70.1,73.5,70.4,67.0,91,78,63,30.08,29.99,7,3,11,29.98
2013-4-19,87.0,78.6,68.2,75.6,71.8,65.5,92,80,59,30.04,29.92,10,4,15,1.32
2013-4-20,77.7,70.3,66.4,69.6,66.0,62.3,94,87,70,30.13,29.97,4,2,7,29.61
2013-4-21,83.3,73.0,63.3,73.9,67.8,61.0,94,84,69,30.13,30.00,11,2,11,24.37
2013-4-22,85.2,71.4,66.1,71.8,66.9,64.2,95,86,60,30.08,29.99,4,1,6,29.80
2013-4-23,85.7,73.4,63.6,69.6,64.4,61.6,95,76,50,30.12,30.00,5,2,9,29.58
2013-4-24,82.8,73.2,61.3,65.5,62.6,58.7,92,71,53,30.15,30.07,5,2,7,0.00
2013-4-25,87.0,74.4,62.6,67.6,64.7,60.0,92,74,51,30.20,30.09,5,2,8,0.00
2013-4-26,88.7,75.6,62.5,71.7,65.4,60.4,94,73,50,30.24,30.15,4,2,7,0.00
2013-4-27,81.8,75.6,71.0,72.6,68.3,65.4,90,78,64,30.23,30.13,5,2,8,0.05
2013-4-28,80.5,75.2,72.6,70.0,65.6,63.5,84,72,61,30.15,30.03,7,4,10,0.02
2013-4-29,83.1,76.2,71.6,72.1,67.2,64.8,90,74,55,30.05,29.93,7,3,10,0.07
2013-4-30,85.0,74.4,67.5,73.5,69.6,65.2,93,85,66,30.01,29.94,6,1,10,0.17
2013-5-1,80.9,70.6,63.4,72.4,67.2,61.0,95,89,72,30.03,29.94,7,0,7,0.72
2013-5-2,78.6,70.8,63.1,72.0,67.0,61.0,94,88,79,29.97,29.83,7,3,12,0.94
2013-5-3,87.0,74.1,65.0,71.7,67.7,63.2,96,82,58,29.85,29.63,8,3,14,0.39
2013-5-4,87.9,75.1,67.4,72.0,68.3,64.7,91,80,56,29.79,29.67,9,3,12,0.00
2013-5-5,83.1,72.4,64.4,69.0,56.2,44.0,92,62,30,29.93,29.74,7,3,14,0.00
2013-5-6,82.6,69.5,60.5,63.7,57.5,52.8,89,68,41,30.00,29.90,9,4,13,0.00
2013-5-7,82.2,69.0,55.8,59.8,56.3,53.1,92,67,42,30.05,29.96,9,3,14,0.00
2013-5-8,86.1,71.3,59.0,66.1,60.5,56.6,92,71,40,30.13,30.02,8,2,13,0.00
2013-5-9,87.5,73.6,58.2,69.9,64.5,56.2,95,75,52,30.16,30.08,4,1,6,0.00
2013-5-10,86.6,75.5,62.9,74.3,69.0,60.8,95,81,59,30.14,30.02,6,2,11,0.00
2013-5-11,91.4,75.4,67.7,76.8,69.6,65.3,94,83,50,30.07,29.96,8,2,11,0.86
2013-5-12,93.8,74.9,66.0,75.3,68.9,64.0,95,83,51,30.04,29.93,7,2,13,0.69
2013-5-13,87.2,73.0,65.0,68.8,63.7,56.0,93,75,49,30.12,29.98,5,2,8,0.00
2013-5-14,86.1,74.1,60.9,61.2,57.4,51.7,86,57,40,30.20,30.11,4,1,8,0.00
2013-5-15,83.6,74.1,60.2,65.5,60.8,57.1,91,65,46,30.22,30.12,5,1,8,0.00
2013-5-16,83.3,74.0,61.5,65.2,63.0,58.8,91,70,51,30.14,30.05,5,2,9,0.00
2013-5-17,87.1,76.6,62.2,71.3,67.1,59.8,93,74,56,30.11,30.03,7,2,8,0.00
2013-5-18,87.8,78.4,65.4,74.9,71.1,63.3,95,79,64,30.12,30.05,6,3,18,0.00
2013-5-19,82.2,76.2,70.4,74.5,71.1,68.0,93,84,71,30.11,30.02,6,2,10,0.43
2013-5-20,86.4,76.7,68.1,74.6,70.6,66.0,94,82,63,30.09,30.00,6,2,9,0.00
2013-5-21,84.6,74.8,67.1,74.8,70.5,65.0,94,87,69,30.05,29.96,5,1,8,0.46
2013-5-22,83.9,74.2,65.6,76.0,70.2,63.8,96,88,74,29.99,29.92,5,1,8,1.55
2013-5-23,90.4,77.4,66.5,76.1,70.8,64.7,95,81,61,30.00,29.91,5,1,8,0.04
2013-5-24,97.9,79.5,64.6,75.5,70.0,62.6,95,76,41,30.09,29.96,4,1,6,0.00
2013-5-25,88.9,80.5,73.8,72.5,66.2,60.4,86,63,41,30.20,30.07,5,2,9,0.00
2013-5-26,86.7,78.0,69.2,65.8,62.6,58.9,75,60,47,30.22,30.15,3,2,7,0.00
2013-5-27,85.3,78.3,72.8,69.7,66.2,62.2,79,67,54,30.19,30.12,5,3,8,0.00
2013-5-28,79.8,77.5,74.0,73.2,71.8,68.6,89,82,77,30.15,30.09,7,5,9,0.01
2013-5-29,83.8,77.2,70.2,76.2,72.6,67.5,93,86,76,30.16,30.06,6,4,13,0.73
2013-5-30,84.8,79.0,71.8,77.4,72.4,69.0,92,81,67,30.14,30.05,8,4,13,0.15
2013-5-31,85.1,80.2,77.0,75.0,72.6,69.3,85,78,68,30.11,30.06,8,5,13,0.00
2013-6-1,86.4,79.6,72.0,77.0,73.9,69.5,93,83,70,30.08,29.99,7,4,12,0.45
2013-6-2,89.8,78.9,70.3,78.2,73.5,68.1,95,84,67,30.02,29.90,7,2,11,0.47
2013-6-3,89.2,76.9,69.9,77.7,72.3,68.1,94,86,62,30.01,29.90,7,2,11,0.21
2013-6-4,84.2,77.5,69.4,74.4,71.1,67.3,94,81,64,30.04,29.94,7,2,11,0.02
2013-6-5,87.0,78.7,70.9,76.5,73.2,68.6,94,84,68,30.03,29.92,6,2,10,0.00
2013-6-6,79.4,74.5,70.1,75.3,71.5,68.0,94,90,86,29.93,29.72,8,5,16,1.41
2013-6-7,90.5,79.7,70.8,79.8,72.8,68.6,93,80,60,29.96,29.78,8,5,12,0.04
2013-6-8,88.1,76.2,69.5,77.2,71.6,67.4,94,86,68,30.09,29.95,8,2,10,0.13
2013-6-9,87.1,77.8,68.6,77.5,72.6,66.8,96,85,67,30.13,30.04,7,2,14,0.00
2013-6-10,88.1,80.6,72.9,78.2,75.3,70.4,92,84,71,30.10,30.03,7,2,11,0.00
2013-6-11,91.0,79.0,70.4,79.2,73.8,68.0,95,85,67,30.09,30.01,6,1,11,0.03
2013-6-12,94.2,80.9,67.7,78.8,72.5,65.6,96,77,51,30.09,30.02,6,2,7,0.01
2013-6-13,96.7,81.5,73.6,77.0,72.7,69.8,90,76,50,30.05,29.90,7,2,10,0.00
2013-6-14,95.0,82.5,70.9,76.0,72.2,68.7,93,73,46,29.94,29.84,8,4,13,0.00
2013-6-15,90.4,81.6,73.4,80.8,74.6,70.4,91,80,63,30.07,29.92,6,2,9,0.09
2013-6-16,88.3,82.3,77.2,77.3,75.9,73.8,90,81,68,30.10,30.04,7,3,10,0.05
2013-6-17,93.3,83.2,76.4,78.2,76.0,72.8,91,80,53,30.09,29.99,6,2,11,0.00
2013-6-18,94.5,83.0,74.1,77.8,74.3,70.9,91,76,51,30.07,29.96,7,3,12,0.00
2013-6-19,92.8,80.9,69.9,78.3,72.7,67.2,92,77,56,30.04,29.96,10,3,15,0.01
2013-6-20,92.6,77.8,70.7,78.3,72.6,68.0,92,85,59,30.10,30.01,6,1,7,0.45
2013-6-21,85.2,74.9,67.2,76.7,70.8,65.4,96,87,71,30.13,30.04,5,0,8,0.09
2013-6-22,91.0,79.8,68.8,76.9,72.5,66.8,96,80,61,30.13,30.06,4,1,7,0.00
2013-6-23,90.1,80.8,73.5,77.5,74.4,70.7,91,81,62,30.16,30.07,4,1,8,0.00
2013-6-24,87.7,80.4,76.7,77.1,74.9,73.4,90,84,67,30.19,30.11,5,1,7,0.00
2013-6-25,91.9,84.2,77.2,76.8,75.0,73.4,89,75,57,30.16,30.06,4,2,10,0.00
2013-6-26,89.0,79.5,72.2,79.5,74.8,69.7,93,86,65,30.09,30.02,6,1,10,0.06
2013-6-27,92.2,78.0,69.0,78.4,71.9,67.2,95,83,56,30.06,29.94,8,2,8,0.06
2013-6-28,94.2,79.7,71.9,76.7,72.6,69.4,93,81,53,29.98,29.84,9,3,13,0.41
2013-6-29,91.0,79.0,72.2,77.0,73.1,69.9,93,83,59,29.90,29.82,8,3,10,0.05
2013-6-30,91.5,76.1,70.0,77.5,71.7,67.6,94,87,60,29.92,29.83,12,3,16,0.93
2013-7-1,88.2,74.6,69.5,77.8,70.7,67.4,94,88,65,30.05,29.89,9,2,1,0.53
2013-7-2,85.9,75.2,70.0,78.9,72.0,67.9,94,90,78,30.13,29.99,8,1,8,0.22
2013-7-3,88.0,80.3,72.0,78.5,74.8,69.7,93,84,72,30.15,30.07,7,2,10,0.00
2013-7-4,88.8,80.8,71.5,77.6,74.2,69.1,92,81,69,30.17,30.09,7,3,10,0.00
2013-7-5,88.4,81.9,75.1,77.5,75.1,72.1,91,80,67,30.16,30.08,7,3,9,0.00
2013-7-6,88.9,82.3,77.1,77.4,75.2,73.3,89,79,67,30.14,30.07,6,2,9,0.00
2013-7-7,89.8,82.7,72.6,77.5,75.3,70.1,92,79,65,30.14,30.06,6,2,12,0.00
2013-7-8,91.4,83.9,75.2,77.8,75.5,72.4,91,77,61,30.17,30.09,5,2,9,0.00
2013-7-9,90.1,81.2,73.5,78.8,74.4,70.7,91,80,64,30.17,30.08,3,1,6,0.03
2013-7-10,88.4,81.8,71.9,76.4,73.9,69.4,92,78,63,30.09,29.99,6,2,9,0.00
2013-7-11,91.2,82.4,73.7,78.4,74.2,67.4,91,78,56,30.05,29.93,15,3,16,0.42
2013-7-12,92.0,78.3,69.1,77.6,72.2,67.4,95,83,56,29.97,29.88,8,1,0,0.06
2013-7-13,87.6,75.4,68.6,77.5,71.5,66.6,94,88,70,30.01,29.92,7,1,7,0.10
2013-7-14,87.3,74.6,68.2,77.1,70.9,66.1,93,88,69,30.11,29.99,7,2,10,0.42
2013-7-15,90.9,78.0,67.3,78.0,72.3,65.5,96,84,63,30.13,30.04,4,2,8,0.00
2013-7-16,90.3,79.1,72.0,78.3,73.5,69.5,92,84,64,30.16,30.10,6,2,9,0.12
2013-7-17,89.6,81.7,72.6,77.6,74.7,70.1,92,80,66,30.16,30.09,5,2,8,0.00
2013-7-18,86.4,78.8,70.5,76.5,73.2,68.1,92,83,67,30.14,30.06,6,2,9,0.06
2013-7-19,86.9,78.2,71.0,79.2,73.2,68.6,92,85,72,30.14,30.05,7,2,9,0.00
2013-7-20,86.2,76.2,69.8,80.6,72.9,68.0,95,90,77,30.12,30.03,7,1,7,0.26
2013-7-21,92.1,76.4,68.7,78.9,71.9,66.4,94,87,60,30.14,30.05,11,2,12,0.50
2013-7-22,94.3,78.3,69.4,78.0,72.2,67.3,94,83,55,30.14,30.07,7,2,12,0.06
2013-7-23,92.8,79.5,70.6,78.2,72.8,68.5,93,81,57,30.10,29.95,9,2,11,0.01
2013-7-24,91.2,78.1,69.9,77.9,73.4,67.5,94,86,62,30.01,29.89,12,3,13,0.84
2013-7-25,85.6,77.5,69.2,77.8,73.5,67.0,94,88,74,29.98,29.88,10,4,12,0.32
2013-7-26,94.3,80.5,71.1,79.4,74.1,69.0,95,82,59,30.00,29.94,5,1,6,0.37
2013-7-27,93.2,80.5,70.3,79.2,74.1,68.3,95,82,61,29.99,29.91,5,1,9,0.00
2013-7-28,93.1,81.3,73.5,78.2,73.9,70.5,93,80,56,30.07,29.93,9,1,9,0.54
2013-7-29,93.4,81.5,70.5,78.9,74.6,68.4,94,81,62,30.16,30.03,5,1,13,0.00
2013-7-30,93.0,82.1,72.1,80.0,75.5,70.2,95,82,64,30.18,30.10,5,1,8,0.00
2013-7-31,90.5,83.3,73.2,80.0,76.1,70.7,95,80,66,30.14,30.02,6,2,12,0.00
2013-8-1,90.8,82.3,71.4,78.2,74.7,69.1,94,79,61,30.07,29.97,6,2,9,0.00
2013-8-2,96.1,83.9,71.5,78.5,74.6,69.2,94,75,53,30.03,29.94,5,1,7,0.00
2013-8-3,91.4,77.2,68.8,79.6,72.7,66.4,93,86,61,30.10,30.00,14,4,15,0.82
2013-8-4,94.5,81.3,70.3,79.4,74.4,68.2,95,81,56,30.09,29.98,7,3,8,0.00
2013-8-5,96.1,80.7,72.5,80.2,74.8,69.7,93,84,55,30.02,29.93,6,2,10,0.34
2013-8-6,93.6,81.8,70.2,79.8,74.8,68.1,95,81,60,29.98,29.90,4,1,6,0.01
2013-8-7,91.1,83.8,74.9,79.4,77.0,72.3,92,80,65,29.99,29.92,5,2,9,0.00
2013-8-8,90.1,84.1,75.6,79.4,76.7,72.5,91,79,66,30.05,29.95,6,3,11,0.00
2013-8-9,91.5,84.8,80.9,78.8,76.2,71.0,86,76,63,30.08,29.98,5,3,11,0.00
2013-8-10,91.4,83.4,73.3,78.4,75.6,70.6,93,78,62,30.14,30.06,7,2,10,0.00
2013-8-11,91.8,85.0,79.6,79.0,76.5,72.0,89,77,57,30.16,30.09,4,2,10,0.00
2013-8-12,84.0,81.0,76.3,76.1,75.1,72.8,89,82,76,30.13,30.03,2,0,5,0.00
2013-8-13,93.2,83.0,70.7,78.9,75.1,68.4,94,78,62,30.07,29.94,5,2,10,0.00
2013-8-14,94.8,84.2,75.2,79.1,75.5,72.1,90,76,56,30.03,29.92,7,3,5,0.00
2013-8-15,91.8,82.2,75.0,78.6,74.9,72.0,92,79,62,30.04,29.95,6,2,7,0.11
2013-8-16,93.6,82.6,74.1,78.0,74.9,71.2,92,79,51,30.06,29.98,5,2,11,0.01
2013-8-17,90.6,83.1,76.3,80.2,77.5,73.5,92,83,68,30.09,30.01,6,2,9,0.00
2013-8-18,90.0,84.4,74.7,80.6,77.9,72.2,94,81,69,30.13,30.03,6,2,7,0.15
2013-8-19,91.7,84.5,79.4,79.6,77.7,76.2,90,81,63,30.10,29.99,6,2,9,0.00
2013-8-20,93.3,85.3,78.9,78.8,77.0,74.1,90,77,61,30.11,30.01,6,2,7,0.00
2013-8-21,91.1,84.0,78.8,80.8,77.7,74.7,90,82,68,30.12,30.04,6,2,9,0.09
2013-8-22,92.5,83.1,74.5,80.0,76.8,72.0,93,82,65,30.09,29.99,5,2,8,0.04
2013-8-23,92.6,84.5,76.5,79.4,77.1,73.7,91,79,62,30.03,29.96,6,2,9,0.00
2013-8-24,94.8,82.5,72.8,79.6,75.4,70.6,94,80,57,30.11,30.00,6,1,8,0.00
2013-8-25,88.3,79.9,73.3,77.9,75.1,70.5,93,86,69,30.17,30.07,5,0,10,0.31
2013-8-26,93.1,81.6,72.0,78.8,74.4,69.8,94,80,55,30.14,30.02,4,1,11,0.02
2013-8-27,91.8,83.2,76.8,74.9,72.6,69.5,90,71,53,30.07,30.00,5,2,8,0.00
2013-8-28,92.3,83.0,75.0,74.9,72.7,70.6,89,72,55,30.07,29.99,4,1,6,0.00
2013-8-29,92.3,83.1,72.3,77.2,74.0,69.6,92,75,60,30.03,29.94,4,1,10,0.00
2013-8-30,93.8,81.2,70.7,79.6,73.6,68.6,95,79,54,29.99,29.90,5,1,8,0.02
2013-8-31,94.7,82.3,70.1,78.6,72.5,67.3,92,74,48,29.99,29.89,13,3,19,0.15
2013-9-1,95.8,78.2,69.2,78.0,71.7,67.1,95,82,54,30.01,29.92,7,2,11,0.10
2013-9-2,93.4,76.8,68.8,78.4,71.3,67.0,95,85,56,30.03,29.92,6,1,8,0.92
2013-9-3,95.3,77.2,69.8,78.5,71.8,67.7,93,85,56,30.02,29.94,6,1,7,0.90
2013-9-4,93.5,81.4,70.5,78.3,74.1,68.7,95,80,57,30.09,29.97,3,0,2,0.01
2013-9-5,95.7,83.9,74.2,81.2,76.4,71.6,94,79,60,30.09,30.01,3,1,7,0.00
2013-9-6,93.5,81.0,72.4,79.6,74.9,70.3,95,83,57,30.05,29.96,4,1,7,0.09
2013-9-7,95.4,80.6,69.9,79.7,73.2,68.0,95,80,55,30.01,29.92,2,1,5,0.01
2013-9-8,95.7,82.4,70.5,78.2,73.5,68.4,95,76,52,29.97,29.88,4,1,6,0.00
2013-9-9,93.1,83.0,71.2,76.8,74.0,68.8,92,76,55,30.03,29.92,3,1,6,0.00
2013-9-10,92.4,84.3,79.1,76.8,73.5,70.1,84,71,53,30.09,29.99,5,2,10,0.01
2013-9-11,90.6,84.5,79.8,76.7,75.2,72.2,86,74,62,30.08,30.00,5,2,8,0.00
2013-9-12,88.5,79.4,70.8,77.2,73.6,68.5,94,83,63,30.02,29.91,4,0,4,0.02
2013-9-13,92.2,80.6,69.4,77.4,72.7,67.4,95,78,58,29.92,29.81,3,1,7,0.00
2013-9-14,92.1,81.2,72.2,80.3,75.0,69.7,92,82,62,29.98,29.83,4,1,7,0.09
2013-9-15,92.6,81.1,72.3,80.2,75.5,69.2,93,84,63,30.08,29.97,6,1,8,0.14
2013-9-16,91.2,80.3,69.5,78.6,73.5,67.3,94,81,62,30.08,29.99,7,1,9,0.00
2013-9-17,92.0,82.2,73.9,77.6,74.9,71.1,92,79,59,30.07,29.97,6,2,10,0.28
2013-9-18,87.8,81.1,74.8,80.0,74.8,72.0,91,82,71,30.03,29.95,5,2,8,0.27
2013-9-19,90.4,82.8,78.1,76.6,73.8,69.2,88,75,61,30.05,29.97,5,2,8,0.00
2013-9-20,89.8,82.2,75.2,74.2,70.5,67.4,89,69,54,30.03,29.92,4,1,7,0.05
2013-9-21,92.4,80.0,67.4,74.2,70.7,65.3,94,75,51,29.94,29.78,4,1,8,0.02
2013-9-22,92.7,79.8,71.2,76.7,72.1,68.4,92,79,52,29.86,29.75,9,3,14,0.01
2013-9-23,90.3,75.6,69.5,78.8,71.5,67.4,95,88,67,29.99,29.84,6,1,6,2.33
2013-9-24,88.1,76.8,71.4,78.8,72.7,69.5,95,88,70,29.96,29.85,8,3,12,0.03
2013-9-25,85.6,77.1,70.2,74.0,70.7,67.8,94,81,62,29.85,29.79,11,4,14,0.00
2013-9-26,94.9,80.8,71.5,79.6,73.2,69.0,93,79,49,29.85,29.75,9,4,15,0.10
2013-9-27,91.5,74.1,66.8,75.6,69.3,64.5,95,86,58,29.94,29.83,5,1,7,0.47
2013-9-28,87.2,76.2,67.4,76.5,70.0,65.6,96,82,62,30.00,29.90,4,1,8,0.34
2013-9-29,92.5,80.1,67.0,74.4,70.5,64.6,93,74,52,29.98,29.91,3,1,7,0.00
2013-9-30,91.0,78.9,65.6,74.3,69.9,63.5,94,76,53,30.02,29.91,3,1,6,0.00
2013-10-1,90.1,82.1,69.7,74.8,72.0,67.2,92,72,58,30.06,29.97,4,1,7,0.00
2013-10-2,90.9,82.1,73.6,73.5,71.6,69.4,88,71,55,30.07,30.00,4,1,7,0.00
2013-10-3,89.8,80.0,71.0,74.3,71.2,67.6,89,75,58,30.08,29.98,3,1,7,0.00
2013-10-4,91.0,81.1,69.2,74.3,71.2,66.6,93,73,57,30.08,30.01,3,1,6,0.00
2013-10-5,91.8,82.1,75.8,77.8,73.7,70.9,88,77,57,30.05,29.97,4,1,8,0.01
2013-10-6,90.3,81.9,70.5,76.5,73.7,67.8,92,77,61,29.98,29.88,4,1,8,0.01
2013-10-7,87.6,78.6,72.3,77.1,72.8,69.5,91,83,61,29.89,29.78,10,3,13,0.13
2013-10-8,90.5,79.8,70.4,76.7,71.8,67.6,92,78,53,29.92,29.79,9,5,16,0.01
2013-10-9,89.9,76.6,69.4,75.0,70.2,67.0,93,82,59,30.01,29.89,5,2,8,0.07
2013-10-10,91.2,76.3,63.5,73.3,67.0,61.1,92,74,54,30.05,29.97,4,1,6,0.00
2013-10-11,91.7,73.7,59.5,70.0,64.0,57.4,95,74,43,30.05,29.95,3,0,6,0.00
2013-10-12,92.9,77.8,63.2,70.1,65.8,60.8,93,69,39,30.04,29.96,5,1,8,0.00
2013-10-13,92.0,76.9,63.5,68.5,64.9,60.8,92,70,39,30.08,29.99,3,1,6,0.00
2013-10-14,90.8,81.5,68.1,73.0,70.2,65.2,91,70,50,30.02,29.93,4,2,8,0.00
2013-10-15,84.8,69.3,64.2,72.0,65.5,61.8,94,88,63,29.99,29.88,1,0,3,0.00
2013-10-16,92.6,76.2,64.1,74.3,68.8,62.3,95,80,47,29.97,29.90,3,0,5,0.01
2013-10-17,91.4,77.9,65.3,74.2,69.6,63.5,95,77,52,29.98,29.90,3,1,5,0.01
2013-10-18,90.1,79.4,67.4,75.3,71.4,65.0,94,78,54,30.00,29.91,5,1,7,0.00
2013-10-19,86.8,81.0,67.8,76.7,74.1,65.3,92,80,69,29.97,29.88,5,2,10,0.00
2013-10-20,92.5,79.8,71.2,77.6,73.4,68.4,92,82,62,29.97,29.86,4,2,8,0.00
2013-10-21,90.8,78.6,69.3,78.6,73.3,67.2,95,85,62,30.00,29.90,4,1,8,0.12
2013-10-22,91.8,78.4,71.2,76.0,72.4,68.4,91,83,55,29.96,29.81,10,3,15,0.12
2013-10-23,85.5,75.2,68.2,72.4,66.3,55.8,93,76,51,30.00,29.80,4,1,7,0.00
2013-10-24,77.6,69.9,64.4,63.5,58.4,51.3,87,68,59,30.14,29.99,3,1,6,0.00
2013-10-25,85.0,72.8,59.6,65.7,60.8,56.7,91,68,45,30.21,30.13,4,1,7,0.00
2013-10-26,84.8,71.4,60.2,63.5,59.6,55.6,89,68,39,30.19,30.09,2,0,4,0.00
2013-10-27,84.0,69.2,54.3,63.8,59.2,52.0,92,73,46,30.13,30.07,3,0,6,0.00
2013-10-28,88.7,72.4,60.1,68.6,62.7,57.0,90,74,49,30.18,30.08,4,1,6,0.00
2013-10-29,87.3,76.0,61.2,70.0,65.7,58.6,92,72,52,30.21,30.13,4,1,7,0.00
2013-10-30,86.8,77.7,66.0,72.6,67.7,63.6,94,72,55,30.22,30.12,4,1,7,0.15
2013-10-31,85.4,79.2,74.8,72.3,69.1,66.2,88,72,59,30.14,30.01,5,2,11,0.00
2013-11-1,89.2,78.5,68.3,74.1,69.9,65.6,92,76,52,30.02,29.86,8,2,11,0.00
2013-11-2,84.8,71.9,66.2,71.2,65.6,60.5,94,81,55,29.96,29.81,9,2,12,0.00
2013-11-3,83.4,71.7,60.0,62.0,56.7,50.3,88,62,35,30.09,29.94,5,2,8,0.00
2013-11-4,81.1,75.1,70.9,66.6,61.3,51.8,86,63,48,30.15,30.07,8,5,12,0.02
2013-11-5,84.9,76.6,69.4,72.3,68.9,64.4,90,78,62,30.15,30.08,7,5,11,0.14
2013-11-6,86.0,77.2,70.4,70.8,68.1,64.8,90,74,55,30.11,30.04,5,2,8,0.00
2013-11-7,86.0,72.8,63.4,73.2,67.1,61.4,95,83,61,30.04,29.95,3,0,6,0.00
2013-11-8,84.3,73.2,63.0,71.3,65.9,60.5,92,79,64,30.11,29.98,6,3,11,0.00
2013-11-9,81.9,75.3,68.7,67.7,66.2,65.2,89,74,60,30.18,30.08,6,3,9,0.00
2013-11-10,87.1,73.5,63.0,71.0,66.1,60.6,94,79,51,30.17,30.09,3,0,6,0.00
2013-11-11,85.4,72.9,63.8,72.3,66.1,61.3,93,80,57,30.16,30.08,4,1,6,0.01
2013-11-12,82.3,69.7,62.9,72.0,65.2,60.5,95,86,70,30.10,30.02,3,0,5,0.01
2013-11-13,71.1,67.7,65.4,63.6,57.9,49.3,83,71,56,30.29,30.05,8,5,13,0.00
2013-11-14,76.8,71.2,66.3,61.6,56.7,50.3,70,60,50,30.30,30.17,7,4,11,0.00
2013-11-15,79.3,74.0,69.5,69.1,64.3,56.9,88,72,60,30.19,30.08,4,1,7,0.02
2013-11-16,81.7,75.4,66.8,70.8,68.2,63.8,90,79,62,30.13,30.03,4,1,9,0.06
2013-11-17,84.2,77.1,68.0,72.6,70.5,65.0,90,81,65,30.09,30.01,6,2,9,0.00
2013-11-18,89.3,74.5,65.8,73.5,68.3,63.4,93,83,54,30.03,29.92,6,2,10,0.08
2013-11-19,84.7,72.5,65.9,69.2,66.2,63.5,93,81,60,29.97,29.88,3,0,5,0.00
2013-11-20,81.1,72.9,64.6,72.6,68.7,62.5,94,87,74,30.11,29.94,5,3,9,1.76
2013-11-21,79.6,74.8,68.6,73.1,69.9,66.0,92,85,77,30.18,30.09,7,3,10,0.44
2013-11-22,83.1,76.7,72.6,71.0,68.6,65.8,85,76,63,30.20,30.11,6,2,9,0.00
2013-11-23,83.4,74.4,62.8,69.7,66.3,60.4,92,77,61,30.11,30.01,4,1,6,0.00
2013-11-24,79.6,68.4,62.5,66.7,61.9,55.7,94,81,62,30.23,30.02,7,4,12,0.00
2013-11-25,73.6,70.3,67.5,66.9,59.9,55.2,85,70,59,30.25,30.08,7,5,14,0.06
2013-11-26,83.0,75.5,69.2,74.1,70.2,65.8,91,84,69,30.08,29.77,8,4,16,0.08
2013-11-27,73.8,66.4,48.0,67.8,59.6,41.8,93,80,54,30.18,29.71,11,6,15,0.17
2013-11-28,72.1,55.7,40.8,58.2,48.2,36.2,90,77,57,30.31,30.17,4,2,8,0.00
2013-11-29,76.2,64.3,55.3,62.5,57.7,52.2,91,80,57,30.34,30.26,4,1,11,0.00
2013-11-30,78.9,67.5,59.4,68.9,61.9,57.1,94,83,61,30.28,30.16,5,1,7,0.22
2013-12-1,68.4,62.7,59.4,64.7,60.4,57.3,95,92,88,30.16,29.97,2,0,6,0.24
2013-12-2,73.4,63.8,55.8,63.9,59.3,53.2,94,86,65,29.96,29.82,4,1,8,0.01
2013-12-3,77.6,65.5,53.6,65.1,59.0,51.6,95,81,59,30.00,29.89,4,0,7,0.01
2013-12-4,83.7,69.6,56.2,70.4,63.5,53.9,95,82,55,30.10,29.98,6,1,8,0.00
2013-12-5,82.8,71.3,57.6,70.6,65.6,55.6,95,83,65,30.19,30.09,4,1,8,0.00
2013-12-6,80.6,72.0,62.9,73.1,67.3,60.5,94,86,67,30.19,30.11,5,1,13,0.08
2013-12-7,84.7,73.2,59.2,72.3,66.7,57.2,95,81,64,30.24,30.16,3,1,5,0.00
2013-12-8,81.9,73.6,64.7,71.1,67.5,62.2,93,82,65,30.24,30.13,6,1,11,0.00
2013-12-9,82.6,73.7,62.3,72.2,67.0,60.2,95,80,65,30.20,30.10,6,2,9,0.01
2013-12-10,86.3,73.9,60.9,72.2,64.9,58.5,93,75,47,30.18,30.07,8,2,12,0.00
2013-12-11,84.2,73.8,62.2,72.5,67.3,59.5,91,81,66,30.24,30.16,3,1,7,0.00
2013-12-12,73.5,65.6,55.2,62.8,57.6,49.8,91,77,52,30.29,30.18,7,2,5,0.00
2013-12-13,77.1,69.4,54.5,60.4,56.6,49.9,89,64,51,30.26,30.14,5,3,9,0.00
2013-12-14,80.1,74.5,71.2,72.7,68.6,62.3,88,82,73,30.14,29.96,7,4,10,0.01
2013-12-15,73.2,68.7,63.1,69.2,64.2,58.8,94,86,73,30.10,29.91,8,3,13,0.61
2013-12-16,72.4,60.4,50.4,58.8,53.6,47.3,90,79,56,30.21,30.09,4,2,8,0.00
2013-12-17,78.1,61.1,48.9,60.8,54.1,46.7,94,80,51,30.23,30.14,4,1,6,0.00
2013-12-18,74.4,60.5,51.6,55.9,50.6,44.6,91,72,42,30.27,30.18,4,1,10,0.01
2013-12-19,76.8,62.8,47.2,62.6,55.2,44.8,93,78,55,30.28,30.19,4,1,7,0.00
2013-12-20,80.4,68.3,52.0,66.9,60.8,49.7,95,79,56,30.22,30.13,6,1,12,0.00
2013-12-21,72.8,67.1,62.2,69.0,64.1,59.8,95,90,85,30.16,30.11,2,0,2,0.00
2013-12-24,70.7,63.0,60.0,59.1,52.0,43.9,78,68,46,30.22,30.18,6,4,11,0.02
2013-12-25,77.4,70.0,60.7,59.6,57.7,55.0,83,66,51,30.23,30.16,6,3,8,0.00
2013-12-26,83.3,67.5,54.3,66.8,60.5,51.7,93,80,54,30.21,30.10,4,1,8,0.00
2013-12-27,78.8,68.0,62.8,69.8,63.9,59.8,92,87,72,30.24,30.15,3,1,7,0.00
2013-12-28,77.6,71.0,63.5,71.4,67.1,61.1,94,88,79,30.21,30.04,6,3,9,0.16
2013-12-29,74.9,70.8,66.1,71.4,67.8,63.4,94,90,87,30.05,29.89,8,4,12,1.49
2013-12-30,68.2,63.7,59.8,63.5,59.5,54.9,93,86,80,30.19,29.99,3,1,5,0.00
2013-12-31,72.7,65.6,60.9,61.7,58.0,54.9,88,77,61,30.30,30.16,4,2,6,0.00
2014-1-1,70.9,65.3,61.8,66.6,61.7,59.2,94,89,74,30.24,30.05,4,1,5,0.16
2014-1-2,84.5,70.5,62.1,71.7,64.9,60.7,95,84,59,30.04,29.81,11,5,21,0.41